Two Harbors, MN

1:32 PM CST on December 05, 2016 (GMT -0600)
Silver Bay Municipal

Weather History for KBFW - December, 2012

Change the Weather History Date:

Friday, December 14, 2012

  Actual Average Record
Temperature  
Mean Temperature 16 °F -  
Max Temperature 30 °F 24 °F 48 °F (1998)
Min Temperature 1 °F 9 °F -20 °F (2010)
Degree Days  
Heating Degree Days 50    
Moisture  
Dew Point 18 °F    
Average Humidity 85    
Maximum Humidity 93    
Minimum Humidity 78    
Precipitation  
Precipitation 0.00 in - - ()
Sea Level Pressure  
Sea Level Pressure 30.07 in    
Wind  
Wind Speed 3 mph (East)    
Max Wind Speed 10 mph    
Max Gust Speed 16 mph    
Visibility 10 miles    
Events      
Averages and records for this station are not official NWS values.
T = Trace of Precipitation, MM = Missing Value Source: NWS Daily Summary

Daily Weather History Graph

Daily Weather History Graph

Search for Another Location

Airport or City:

Trip Planner

Search our weather history database for the weather conditions in past years. The results will help you decide how hot, cold, wet, or windy it might be!

Date:

Astronomy

Dec. 14, 2012 Rise Set
Actual Time 7:45 AM CST 4:15 PM CST
Civil Twilight 7:09 AM CST 4:51 PM CST
Nautical Twilight 6:30 AM CST 5:30 PM CST
Astronomical Twilight 5:53 AM CST 6:07 PM CST
Moon 8:46 AM CST (12/14) 6:13 PM CST (12/14)
Length of Visible Light 9h 41m
Length of Day
8h 30m
Waxing Crescent, 3% of the Moon is Illuminated
Dec 14
Waxing Crescent
Dec 19
First Quarter
Dec 28
Full
Jan 4
Last Quarter
Jan 11
New

Hourly Weather History & Observations

Time (CST) Temp. Windchill Dew Point Humidity Pressure Visibility Wind Dir Wind Speed Gust Speed Precip Events Conditions
12:13 AM 1.4 °F - -2.2 °F 85% 30.11 in 10.0 mi Calm Calm - N/A   Scattered Clouds
12:33 AM 3.2 °F - -0.4 °F 85% 30.11 in 10.0 mi Calm Calm - N/A   Overcast
12:53 AM 3.2 °F - -2.2 °F 78% 30.12 in 10.0 mi Calm Calm - N/A   Overcast
1:13 AM 3.2 °F - -0.4 °F 85% 30.12 in 10.0 mi Calm Calm - N/A   Overcast
1:33 AM 6.8 °F - 1.4 °F 79% 30.11 in 10.0 mi Calm Calm - N/A   Overcast
1:53 AM 6.8 °F - 1.4 °F 79% 30.11 in 10.0 mi Calm Calm - N/A   Overcast
2:13 AM 6.8 °F - 1.4 °F 79% 30.11 in 10.0 mi Calm Calm - N/A   Overcast
2:33 AM 8.6 °F - 3.2 °F 79% 30.12 in 10.0 mi Calm Calm - N/A   Overcast
2:53 AM 8.6 °F - 3.2 °F 79% 30.12 in 10.0 mi Calm Calm - N/A   Overcast
3:13 AM 10.4 °F - 6.8 °F 85% 30.12 in 10.0 mi Calm Calm - N/A   Overcast
3:33 AM 8.6 °F - 3.2 °F 79% 30.12 in 10.0 mi Calm Calm - N/A   Overcast
3:53 AM 10.4 °F - 6.8 °F 85% 30.12 in 10.0 mi Calm Calm - N/A   Overcast
4:13 AM 10.4 °F - 6.8 °F 85% 30.12 in 10.0 mi Calm Calm - N/A   Overcast
4:33 AM 12.2 °F - 8.6 °F 85% 30.12 in 10.0 mi Calm Calm - N/A   Overcast
4:53 AM 12.2 °F - 10.4 °F 92% 30.12 in 10.0 mi Calm Calm - N/A   Overcast
5:13 AM 14.0 °F - 10.4 °F 86% 30.12 in 10.0 mi Calm Calm - N/A   Overcast
5:33 AM 14.0 °F - 10.4 °F 86% 30.12 in 10.0 mi Calm Calm - N/A   Overcast
5:53 AM 15.8 °F - 10.4 °F 79% 30.12 in 10.0 mi Calm Calm - N/A   Overcast
6:13 AM 15.8 °F - 10.4 °F 79% 30.12 in 10.0 mi Calm Calm - N/A   Overcast
6:33 AM 15.8 °F - 12.2 °F 86% 30.13 in 10.0 mi Calm Calm - N/A   Overcast
6:53 AM 15.8 °F - 12.2 °F 86% 30.12 in 10.0 mi Calm Calm - N/A   Overcast
7:13 AM 15.8 °F - 12.2 °F 86% 30.11 in 10.0 mi Calm Calm - N/A   Overcast
7:33 AM 15.8 °F - 12.2 °F 86% 30.12 in 10.0 mi Calm Calm - N/A   Overcast
7:53 AM 15.8 °F - 12.2 °F 86% 30.12 in 10.0 mi Calm Calm - N/A   Overcast
8:13 AM 17.6 °F - 14.0 °F 86% 30.11 in 10.0 mi Calm Calm - N/A   Overcast
8:33 AM 17.6 °F - 15.8 °F 93% 30.12 in 10.0 mi Calm Calm - N/A   Overcast
8:53 AM 19.4 °F - 17.6 °F 93% 30.12 in 10.0 mi Calm Calm - N/A   Overcast
9:13 AM 19.4 °F - 17.6 °F 93% 30.13 in 10.0 mi Calm Calm - N/A   Overcast
9:33 AM 21.2 °F - 19.4 °F 93% 30.12 in 10.0 mi Calm Calm - N/A   Overcast
9:53 AM 23.0 °F 17.0 °F 19.4 °F 86% 30.12 in 10.0 mi ENE 4.6 mph - N/A   Overcast
10:13 AM 24.8 °F 19.1 °F 19.4 °F 80% 30.13 in 10.0 mi ENE 4.6 mph - N/A   Overcast
10:34 AM 24.8 °F 19.1 °F 21.2 °F 86% 30.13 in 10.0 mi East 4.6 mph - N/A   Overcast
10:53 AM 24.8 °F 17.9 °F 21.2 °F 86% 30.13 in 10.0 mi East 5.8 mph - N/A   Overcast
11:13 AM 24.8 °F 16.1 °F 21.2 °F 86% 30.12 in 10.0 mi East 8.1 mph - N/A   Overcast
11:33 AM 26.6 °F 20.0 °F 21.2 °F 80% 30.12 in 10.0 mi East 5.8 mph - N/A   Overcast
11:53 AM 26.6 °F 20.0 °F 23.0 °F 86% 30.11 in 10.0 mi East 5.8 mph - N/A   Overcast
12:13 PM 26.6 °F 19.1 °F 23.0 °F 86% 30.10 in 10.0 mi East 6.9 mph - N/A   Overcast
12:33 PM 28.4 °F 21.2 °F 24.8 °F 86% 30.10 in 10.0 mi East 6.9 mph - N/A   Overcast
12:53 PM 28.4 °F 21.2 °F 24.8 °F 86% 30.09 in 10.0 mi East 6.9 mph - N/A   Overcast
1:14 PM 28.4 °F 21.2 °F 24.8 °F 86% 30.08 in 10.0 mi East 6.9 mph - N/A   Overcast
1:33 PM 28.4 °F 21.2 °F 24.8 °F 86% 30.07 in 10.0 mi East 6.9 mph - N/A   Overcast
1:53 PM 28.4 °F 19.7 °F 24.8 °F 86% 30.06 in 10.0 mi East 9.2 mph - N/A   Overcast
2:13 PM 28.4 °F 19.7 °F 24.8 °F 86% 30.05 in 10.0 mi East 9.2 mph - N/A   Mostly Cloudy
2:33 PM 28.4 °F 21.2 °F 24.8 °F 86% 30.05 in 10.0 mi East 6.9 mph - N/A   Mostly Cloudy
2:53 PM 28.4 °F 20.4 °F 24.8 °F 86% 30.04 in 10.0 mi East 8.1 mph - N/A   Overcast
3:13 PM 28.4 °F 20.4 °F 24.8 °F 86% 30.04 in 10.0 mi East 8.1 mph - N/A   Mostly Cloudy
3:33 PM 28.4 °F 19.7 °F 24.8 °F 86% 30.04 in 10.0 mi East 9.2 mph - N/A   Mostly Cloudy
3:53 PM 28.4 °F 19.7 °F 24.8 °F 86% 30.04 in 10.0 mi East 9.2 mph - N/A   Mostly Cloudy
4:14 PM 28.4 °F 20.4 °F 24.8 °F 86% 30.04 in 10.0 mi East 8.1 mph - N/A   Scattered Clouds
4:33 PM 28.4 °F 20.4 °F 24.8 °F 86% 30.04 in 10.0 mi East 8.1 mph - N/A   Scattered Clouds
4:53 PM 28.4 °F 20.4 °F 24.8 °F 86% 30.04 in 10.0 mi East 8.1 mph - N/A   Scattered Clouds
5:14 PM 28.4 °F 21.2 °F 24.8 °F 86% 30.04 in 10.0 mi East 6.9 mph - N/A   Scattered Clouds
5:33 PM 28.4 °F 21.2 °F 24.8 °F 86% 30.03 in 10.0 mi East 6.9 mph - N/A   Mostly Cloudy
5:53 PM 28.4 °F 20.4 °F 24.8 °F 86% 30.03 in 10.0 mi East 8.1 mph - N/A   Mostly Cloudy
6:13 PM 28.4 °F 21.2 °F 24.8 °F 86% 30.03 in 10.0 mi East 6.9 mph - N/A   Mostly Cloudy
6:33 PM 28.4 °F 20.4 °F 24.8 °F 86% 30.02 in 10.0 mi East 8.1 mph - N/A   Scattered Clouds
6:53 PM 30.2 °F 22.6 °F 24.8 °F 80% 30.01 in 10.0 mi East 8.1 mph - N/A   Scattered Clouds
7:13 PM 30.2 °F 21.3 °F 24.8 °F 80% 30.00 in 10.0 mi East 10.4 mph - N/A   Scattered Clouds
7:33 PM 30.2 °F 21.3 °F 26.6 °F 86% 29.99 in 10.0 mi East 10.4 mph 16.1 mph N/A   Scattered Clouds
7:53 PM 30.2 °F 21.9 °F 26.6 °F 86% 29.99 in 10.0 mi ENE 9.2 mph - N/A   Scattered Clouds
8:13 PM 30.2 °F 21.9 °F 26.6 °F 86% 29.99 in 10.0 mi East 9.2 mph - N/A   Mostly Cloudy
8:53 PM 30.2 °F 22.6 °F 24.8 °F 80% 29.96 in 10.0 mi East 8.1 mph - N/A   Clear
9:13 PM 30.2 °F 23.4 °F 24.8 °F 80% 29.96 in 10.0 mi East 6.9 mph - N/A   Clear
9:33 PM 30.2 °F 22.6 °F 26.6 °F 86% 29.97 in 10.0 mi ESE 8.1 mph - N/A   Clear
9:53 PM 30.2 °F 23.4 °F 24.8 °F 80% 29.96 in 10.0 mi East 6.9 mph - N/A   Clear
10:13 PM 30.2 °F 22.6 °F 24.8 °F 80% 29.96 in 10.0 mi ESE 8.1 mph - N/A   Clear
10:33 PM 30.2 °F 22.6 °F 26.6 °F 86% 29.95 in 10.0 mi East 8.1 mph - N/A   Clear
10:53 PM 30.2 °F 23.4 °F 24.8 °F 80% 29.94 in 10.0 mi East 6.9 mph - N/A   Clear
11:13 PM 30.2 °F 24.3 °F 24.8 °F 80% 29.94 in 10.0 mi ESE 5.8 mph - N/A   Clear
11:33 PM 30.2 °F 23.4 °F 24.8 °F 80% 29.94 in 10.0 mi East 6.9 mph - N/A   Clear
11:53 PM 28.4 °F 23.3 °F 24.8 °F 86% 29.92 in 10.0 mi East 4.6 mph - N/A   Scattered Clouds